Regional Weather Roundup
Issued by NWS Charleston, SC

Home | Current Version | Previous Version | Text Only | Print | Product List | Glossary On
Versions: 1 2 3 4 5 6 7 8 9 10 11 12 13 14 15 16 17 18 19 20 21 22 23 24 25 26 27 28 29 30 31 32 33 34 35 36 37 38 39 40 41 42 43 44 45 46 47 48 49 50
000
ASUS42 KCHS 232212
RWRCHS

REGIONAL WEATHER ROUNDUP
NATIONAL WEATHER SERVICE CHARLESTON SC
600 PM EDT SUN APR 23 2017

NOTE: "FAIR" INDICATES FEW OR NO CLOUDS BELOW 12,000 FEET WITH NO
SIGNIFICANT WEATHER AND/OR OBSTRUCTIONS TO VISIBILITY.

NOT ALL STATIONS ARE QUALITY CONTROLLED. USE DATA WITH CAUTION...
ESPECIALLY DEWPOINT OBSERVATIONS.

SCZ027-030-031-034>040-042>050-232300-
...SOUTHEAST SOUTH CAROLINA...

CITY           SKY/WX    TMP DP  RH WIND       PRES   REMARKS
N CHARLESTON   PTSUNNY   77  67  71 S17       29.79S
WATERFRONT PRK   N/A     76  71  84 SE15      29.78S
JOHNS ISLAND   CLOUDY    75  72  88 SE9G16    29.80S
PINOPOLIS        N/A     79  68  69 S8G15     29.71S
MONCKS CORNER  MOCLDY    77  64  65 SE7       29.79S
SUMMERVILLE    FAIR      81  64  57 SE8       29.78F
BEAUFORT MCAS  CLOUDY    79  69  71 SE9       29.76F
BEAUFORT ARPT  FAIR      79  64  61 S10G17    29.76F HAZE
HILTON HEAD IS MOSUNNY   77  68  73 S8G18     29.77
WALTERBORO     CLOUDY    77  66  69 SE10G17   29.77S
ALLENDALE      FAIR      79  64  61 SE13G18   29.71F

...SOUTHERN MIDLANDS AND PEE DEE...

CITY           SKY/WX    TMP DP  RH WIND       PRES   REMARKS
GEORGETOWN     FAIR      73  66  78 E9        29.84R
KINGSTREE      CLOUDY    68  63  83 NE7       29.82S
ORANGEBURG     LGT RAIN  70  68  93 E9        29.76F
BARNWELL       CLOUDY    75  68  78 NE5       29.73S
AIKEN          MOCLDY    66  61  82 NE13G18   29.80S
MANNING        LGT RAIN  68  64  88 NE12G17   29.80S
COLUMBIA       CLOUDY    67  59  75 NE13      29.79S
SUMTER         LGT RAIN  63  60  91 NE14      29.80F
FLORENCE       CLOUDY    61  60  97 NE14G20   29.87R
MYRTLE BEACH   LGT RAIN  70  66  88 E14G23    29.87S
N MYRTLE BEACH CLOUDY    70  65  84 E9        29.85S

$$

GAZ063-065-086>088-099>101-113>116-118-119-134>141-150-232300-
...SOUTHEAST GEORGIA...

CITY           SKY/WX    TMP DP  RH WIND       PRES   REMARKS
SAVANNAH ARPT  MOSUNNY   83  62  49 S12       29.74S
HUNTER AAF     CLOUDY    80  68  68 SE10G17   29.72F
FORT STEWART   MOSUNNY   81  64  55 SE9       29.71F
STATESBORO     CLOUDY    85  62  45 SE7       29.71S
SYLVANIA       NOT AVBL
CLAXTON        FAIR      85  62  44 S9        29.71S

...CSRA...CENTRAL AND FAR SOUTHEAST GEORGIA...

CITY           SKY/WX    TMP DP  RH WIND       PRES   REMARKS
THOMSON        LGT RAIN  65  61  89 E8G17     29.82R
AUGUSTA-BUSH   PTSUNNY   75  64  68 NE10      29.72F
AUGUSTA-DANIEL CLOUDY    70  60  70 N15       29.75S
SWAINSBORO     MOCLDY    82  57  42 SW7       29.72S
VIDALIA        PTSUNNY   86  59  39 SW9       29.71S
EASTMAN        CLOUDY    82  45  26 SW3       29.73F
HAZLEHURST     FAIR      85  59  42 SW13      29.70F
ALMA           MOSUNNY   86  60  41 SW8       29.70F
WAYCROSS       MOSUNNY   89  63  41 SW10      29.70F HX  90
JESUP          FAIR      82  63  51 S9G17     29.72F
BAXLEY         PTSUNNY   86  63  45 SW8       29.70F
BRUNSWICK      CLOUDY    79  70  73 SE12      29.75F
SAINT SIMONS   CLOUDY    76  67  73 SE15G21   29.74F

$$

SCZ027-028-034-036>038-045-046-048>050-GAZ119-141-232300-
...LAKE AND SUPPLEMENTAL COASTAL OBSERVATIONS...

STATION/POSITION TIME  TEMP    WIND        PRES    WAVE   SWELL
                       AIR SEA DIR/SP/G            HT/PER HT/PER/DIR
                 (UTC) (F)     (DEG/KT/KT) (MB)    (FT/S) (FT/S/D)
WINYAH BAY       2045   72      90/ 12     1010.0
LAKE MURRAY      2120   62      30/  5/  7 1008.8
ACE BASIN NERRS  NOT AVBL
FORT PULASKI     2136   77 75  170/  9/ 14 1008.1F
SAPELO ISLAND    2100   84     150/ 12     1008.0

$$

ANZ835-935-AMZ111-154-330-350-352-354-370-450-454-472-232300-
...C-MAN AND BUOY OBSERVATIONS...

STATION/POSITION TIME  TEMP    WIND        PRES    WAVE   SWELL
                       AIR SEA DIR/SP/G            HT/PER HT/PER/DIR
                 (UTC) (F)     (DEG/KT/KT) (MB)    (FT/S) (FT/S/D)
BUOY 41004       2150   75 75  160/ 14/ 17 1009.3F   3/ 6   2/110/11
BUOY 41008       2050   75 73  160/ 12/ 14 1007.8    3/12   2/ 80/12
FOLLY BEACH CMAN 2100   75     130/ 14/ 16 1009.7F
CAPERS NEARSHORE 2108   75 74  150/ 12/ 16 1008.9F
FRIPP NEARSHORE  2108   74 74  170/ 14/ 17 1007.8F


STATION/POSITION TIME  TEMP    WIND        PRES    WAVE   SWELL
                       AIR SEA DIR/SP/G            HT/PER HT/PER/DIR
                 (UTC) (F)     (DEG/KT/KT) (MB)    (FT/S) (FT/S/D)
5E ST. MARYS GA  2130      73                N/A     3/13   2/100/13
FRYING PAN BUOY  2150   75 74  150/  8/ 12 1010.8F   4/ 6   3/ 90/ 6
BUOY 41025       2150   67 76   20/ 19/ 25 1012.9F   7/ 9   3/ 70/11
CAPE LOOKOUT NC  2200   63      30/ 20/ 25 1013.4F
BUOY 41002       2150   74 75  160/ 14/ 16 1013.4F   4/12   3/ 30/12
BUOY 41010       2150   74 78  140/ 17/ 21 1009.8F   5/12   3/ 80/12
ST AUGUSTINE FL  2200   74 77  150/ 18/ 20 1008.6F


$$



USA.gov is the U.S. government's official web portal to all federal, state and local government web resources and services.